Molniya
NORAD ID: 24960
Int'l Code: 1997-054A
Perigee: 577.6 km
Apogee: 39,094.1 km
Inclination: 61.9 °
Period: 703.7 minutes
Semi major axis: 26206 km
Launch date: September 24, 1997
Source: Commonwealth of Independent States (former USSR) (CIS)
Two Line Element Set (TLE):
1 24960U 97054A 13165.07546757 -.00000991 00000-0 61997-3 0 5444
2 24960 061.9448 208.9034 7348537 264.7045 014.2858 02.04635377115480
Source:
NASA's NSSDC Master Catalog entry for MOLNIYA 1-90